Tracking 35331 objects as of 15-Sep-2026
HD Live streaming from Space Station
objects crossing your sky now

COSMOS 1437


COSMOS 1437 is no longer on orbit
COSMOS 1437 is classified as:


NORAD ID: 13770
Int'l Code: 1983-003A
Launch date: January 20, 1983
Source: Commonwealth of Independent States (former USSR) (CIS)
Launch site: PLESETSK MISSILE AND SPACE COMPLEX (PKMTR)
Decay date: 2022-01-04
Your satellite tracking list
Your tracking list is empty




NASA's NSSDC Master Catalog

Two Line Element Set (TLE):
1 13770U 83003A   22003.66392830  .07926126 -83687-6  31529-3 0  9991
2 13770  81.1189 228.8019 0005273 171.4171 189.2098 16.43611233146218
Source of the keplerian elements: AFSPC